COSMOS 2464 (736)

Last updated on Fri Dec 23 2022 00:03:14 GMT+0000 (Coordinated Universal Time)

1 37139U 10041C 22356.30740550 .00000086 00000+0 00000+0 0 9993 2 37139 63.9563 234.0020 0030612 11.4887 111.7903 2.13101178 95751
UTC large
Height (km)
Speed (km/s)
/
Latitude / Longitude
Inclination (degrees)
Orbital Period (minutes)
Azimuth
Elevation
Range (km)
Doppler Factor

Next 0 passes for location: London (51.5072 / 0.1276)

Sorry there are no passes over London.
COSMOS 2464 (736)